date,City,No. Stations,Air Quality,Index Value,Prominent Pollutant
2019-02-06,Vatva,1.0,Moderate,182,PM2.5
2019-02-07,Vatva,1.0,Moderate,185,PM10
2019-02-08,Vatva,1.0,Poor,284,PM10
2019-02-09,Vatva,1.0,Moderate,190,PM10
2019-02-10,Vatva,1.0,Moderate,132,PM2.5
2019-02-11,Vatva,1.0,Moderate,110,PM10
2019-02-12,Vatva,1.0,Moderate,134,PM10
2019-02-13,Vatva,1.0,Poor,215,PM2.5
2019-02-14,Vatva,1.0,Moderate,194,PM2.5
2019-02-15,Vatva,1.0,Poor,248,PM2.5
2019-02-16,Vatva,1.0,Moderate,124,PM10
2019-02-17,Vatva,1.0,Moderate,178,PM2.5
2019-02-18,Vatva,1.0,Poor,235,PM2.5
2019-02-19,Vatva,1.0,Moderate,149,PM2.5
2019-02-20,Vatva,1.0,Moderate,175,PM2.5
2019-02-21,Vatva,1.0,Moderate,144,PM10
2019-02-22,Vatva,1.0,Moderate,108,PM10
2019-02-23,Vatva,1.0,Moderate,107,PM10
2019-02-24,Vatva,1.0,Moderate,176,PM2.5
2019-02-25,Vatva,1.0,Moderate,164,PM10
2019-02-26,Vatva,1.0,Moderate,166,PM10
2019-02-27,Vatva,1.0,Moderate,162,PM10
2019-02-28,Vatva,1.0,Moderate,107,PM10
2019-03-01,Vatva,1.0,Moderate,129,PM10
2019-03-02,Vatva,1.0,Moderate,163,OZONE
2019-03-03,Vatva,1.0,Moderate,193,PM2.5
2019-03-06,Vatva,1.0,Moderate,158,PM2.5
2019-03-07,Vatva,1.0,Moderate,189,PM10
2019-03-08,Vatva,1.0,Moderate,182,PM10
2019-03-09,Vatva,1.0,Moderate,191,PM10
2019-03-10,Vatva,1.0,Moderate,140,PM10
2019-03-11,Vatva,1.0,Moderate,136,PM10
2019-03-13,Vatva,1.0,Moderate,189,PM2.5
2019-03-14,Vatva,1.0,Moderate,150,PM10
2019-03-15,Vatva,1.0,Moderate,128,PM10
2019-03-16,Vatva,1.0,Moderate,142,PM10
2019-03-17,Vatva,1.0,Moderate,143,PM10
2019-03-18,Vatva,1.0,Moderate,115,PM10
2019-03-19,Vatva,1.0,Moderate,143,PM2.5
2019-03-20,Vatva,1.0,Moderate,164,PM10
2019-03-21,Vatva,1.0,Moderate,107,PM10
2019-03-22,Vatva,1.0,Moderate,117,PM10
2019-03-23,Vatva,1.0,Moderate,140,PM10
2019-03-24,Vatva,1.0,Poor,207,PM10
2019-03-25,Vatva,1.0,Moderate,135,PM10
2019-03-27,Vatva,1.0,Moderate,183,OZONE
2019-03-28,Vatva,1.0,Poor,252,PM2.5
2019-03-29,Vatva,1.0,Moderate,195,PM10
2019-03-30,Vatva,1.0,Moderate,180,PM10
2019-03-31,Vatva,1.0,Moderate,174,PM10
2019-04-01,Vatva,1.0,Moderate,154,PM10
2019-04-02,Vatva,1.0,Poor,224,OZONE
2019-04-03,Vatva,1.0,Poor,213,PM2.5
2019-04-04,Vatva,1.0,Moderate,177,PM10
2019-04-05,Vatva,1.0,Moderate,176,PM2.5
2019-04-06,Vatva,1.0,Moderate,138,PM10
2019-04-07,Vatva,1.0,Moderate,154,PM2.5
2019-04-08,Vatva,1.0,Moderate,135,PM10
2019-04-09,Vatva,1.0,Moderate,145,PM2.5
2019-04-10,Vatva,1.0,Moderate,122,PM10
2019-04-11,Vatva,1.0,Moderate,171,PM10
2019-04-12,Vatva,1.0,Moderate,152,PM10
2019-04-13,Vatva,1.0,Moderate,129,PM10
2019-04-14,Vatva,1.0,Moderate,143,PM10
2019-04-15,Vatva,1.0,Moderate,158,PM10
2019-04-16,Vatva,1.0,Very Poor,366,PM10
2019-04-17,Vatva,1.0,Moderate,147,PM10
2019-04-18,Vatva,1.0,Moderate,118,NO2
2019-04-19,Vatva,1.0,Moderate,115,NO2
2019-04-20,Vatva,1.0,Poor,221,OZONE
2019-04-21,Vatva,1.0,Moderate,142,PM10
2019-04-22,Vatva,1.0,Poor,259,OZONE
2019-04-23,Vatva,1.0,Moderate,196,OZONE
2019-04-24,Vatva,1.0,Moderate,162,OZONE
2019-04-25,Vatva,1.0,Moderate,109,PM10
2019-04-26,Vatva,1.0,Moderate,132,PM10
2019-04-27,Vatva,1.0,Moderate,137,PM10
2019-04-28,Vatva,1.0,Moderate,153,PM10
2019-04-29,Vatva,1.0,Moderate,144,PM10
2019-04-30,Vatva,1.0,Moderate,155,PM10
2019-05-01,Vatva,1.0,Poor,219,NO2
2019-05-02,Vatva,1.0,Moderate,170,PM10
2019-05-03,Vatva,1.0,Moderate,133,NO2
2019-05-04,Vatva,1.0,Moderate,129,PM10
2019-05-05,Vatva,1.0,Moderate,126,PM10
2019-05-06,Vatva,1.0,Moderate,118,PM10
2019-05-07,Vatva,1.0,Moderate,124,PM10
2019-05-08,Vatva,1.0,Moderate,121,PM10
2019-05-11,Vatva,1.0,Poor,206,NO2
2019-05-12,Vatva,1.0,Moderate,160,NO2
2019-05-13,Vatva,1.0,Moderate,146,NO2
2019-05-14,Vatva,1.0,Moderate,140,NO2
2019-05-15,Vatva,1.0,Moderate,127,NO2
2019-05-17,Vatva,1.0,Moderate,109,NO2
2019-05-18,Vatva,1.0,Moderate,105,PM10
2019-05-19,Vatva,1.0,Moderate,101,NO2
2019-05-20,Vatva,1.0,Satisfactory,90,NO2
2019-05-21,Vatva,1.0,Moderate,112,NO2
2019-05-22,Vatva,1.0,Moderate,113,NO2
2019-05-23,Vatva,1.0,Moderate,114,PM10
2019-05-24,Vatva,1.0,Moderate,128,PM10
2019-05-25,Vatva,1.0,Moderate,132,PM10
2019-05-26,Vatva,1.0,Moderate,128,PM10
2019-05-27,Vatva,1.0,Moderate,138,PM10
2019-05-28,Vatva,1.0,Moderate,127,PM10
2019-05-29,Vatva,1.0,Moderate,112,PM10
2019-05-30,Vatva,1.0,Moderate,127,PM10
2019-05-31,Vatva,1.0,Moderate,119,PM10
2019-06-01,Vatva,1.0,Moderate,111,PM10
2019-06-02,Vatva,1.0,Moderate,112,PM10
2019-06-03,Vatva,1.0,Moderate,112,PM10
2019-06-04,Vatva,1.0,Moderate,112,PM10
2019-06-05,Vatva,1.0,Moderate,109,PM10
2019-06-06,Vatva,1.0,Moderate,119,PM10
2019-06-07,Vatva,1.0,Moderate,114,PM10
2019-06-08,Vatva,1.0,Moderate,117,PM10
2019-06-09,Vatva,1.0,Moderate,119,PM10
2019-06-11,Vatva,1.0,Satisfactory,98,PM10
2019-06-12,Vatva,1.0,Moderate,114,PM10
2019-06-13,Vatva,1.0,Satisfactory,83,PM10
2019-06-14,Vatva,1.0,Satisfactory,92,PM10
2019-06-15,Vatva,1.0,Satisfactory,92,PM10
2019-06-16,Vatva,1.0,Moderate,104,PM10
2019-06-17,Vatva,1.0,Moderate,101,PM10
2019-06-18,Vatva,1.0,Satisfactory,88,PM10
2019-06-19,Vatva,1.0,Satisfactory,79,PM10
2019-06-20,Vatva,1.0,Moderate,102,PM10
2019-06-21,Vatva,1.0,Moderate,109,PM10
2019-06-22,Vatva,1.0,Moderate,112,PM10
2019-06-23,Vatva,1.0,Moderate,103,PM10
2019-06-24,Vatva,1.0,Satisfactory,84,PM10
2019-06-25,Vatva,1.0,Moderate,101,PM10
2019-06-26,Vatva,1.0,Moderate,113,PM10
2019-06-27,Vatva,1.0,Satisfactory,96,PM10
2019-06-28,Vatva,1.0,Satisfactory,98,PM10
2019-06-29,Vatva,1.0,Satisfactory,90,PM10
2019-06-30,Vatva,1.0,Moderate,115,PM10
2019-07-01,Vatva,1.0,Satisfactory,90,PM10
2019-07-02,Vatva,1.0,Moderate,106,PM10
2019-07-03,Vatva,1.0,Satisfactory,97,PM10
2019-07-04,Vatva,1.0,Moderate,112,NO2
2019-07-05,Vatva,1.0,Moderate,120,NO2
2019-07-06,Vatva,1.0,Moderate,105,PM10
2019-07-07,Vatva,1.0,Moderate,102,NO2
2019-07-08,Vatva,1.0,Satisfactory,98,PM10
2019-07-11,Vatva,1.0,Moderate,122,PM10
2019-07-12,Vatva,1.0,Moderate,115,PM10
2019-07-13,Vatva,1.0,Moderate,129,NO2
2019-07-14,Vatva,1.0,Moderate,104,PM10
2019-07-15,Vatva,1.0,Moderate,113,PM10
2019-07-16,Vatva,1.0,Moderate,103,PM10
2019-07-17,Vatva,1.0,Moderate,101,PM10
2019-07-18,Vatva,1.0,Satisfactory,94,PM10
2019-07-19,Vatva,1.0,Satisfactory,95,PM10
2019-07-20,Vatva,1.0,Moderate,111,PM10
2019-07-21,Vatva,1.0,Moderate,115,OZONE
2019-07-22,Vatva,1.0,Satisfactory,98,PM2.5
2019-07-24,Vatva,1.0,Moderate,145,PM2.5
2019-07-25,Vatva,1.0,Moderate,112,NO2
2019-07-26,Vatva,1.0,Moderate,152,NO2
2019-07-27,Vatva,1.0,Moderate,151,OZONE
2019-07-28,Vatva,1.0,Moderate,135,NO2
2019-07-29,Vatva,1.0,Moderate,122,NO2
2019-07-30,Vatva,1.0,Moderate,115,NO2
2019-07-31,Vatva,1.0,Moderate,128,NO2
2019-08-01,Vatva,1.0,Moderate,120,NO2
2019-08-02,Vatva,1.0,Moderate,115,NO2
2019-08-03,Vatva,1.0,Moderate,115,NO2
2019-08-04,Vatva,1.0,Moderate,109,NO2
2019-08-05,Vatva,1.0,Moderate,120,NO2
2019-08-06,Vatva,1.0,Satisfactory,99,NO2
2019-08-07,Vatva,1.0,Moderate,107,PM10
2019-08-08,Vatva,1.0,Moderate,149,NO2
2019-08-09,Vatva,1.0,Moderate,137,NO2
2019-08-10,Vatva,1.0,Moderate,112,NO2
2019-08-11,Vatva,1.0,Moderate,113,NO2
2019-08-12,Vatva,1.0,Moderate,103,NO2
2019-08-13,Vatva,1.0,Satisfactory,99,PM10
2019-08-14,Vatva,1.0,Moderate,101,PM10
2019-08-15,Vatva,1.0,Satisfactory,83,NO2
2019-08-16,Vatva,1.0,Satisfactory,77,NO2
2019-08-17,Vatva,1.0,Moderate,135,NO2
2019-08-18,Vatva,1.0,Satisfactory,91,NO2
2019-08-19,Vatva,1.0,Satisfactory,81,NO2
2019-08-20,Vatva,1.0,Satisfactory,92,NO2
2019-08-21,Vatva,1.0,Moderate,119,NO2
2019-08-22,Vatva,1.0,Moderate,165,NO2
2019-08-23,Vatva,1.0,Moderate,149,NO2
2019-08-24,Vatva,1.0,Satisfactory,92,PM10
2019-08-25,Vatva,1.0,Satisfactory,69,NO2
2019-08-26,Vatva,1.0,Moderate,103,NO2
2019-08-27,Vatva,1.0,Moderate,112,NO2
2019-08-28,Vatva,1.0,Satisfactory,98,NO2
2019-08-29,Vatva,1.0,Satisfactory,90,NO2
2019-08-30,Vatva,1.0,Satisfactory,93,PM10
2019-08-31,Vatva,1.0,Satisfactory,93,PM10
2019-09-01,Vatva,1.0,Satisfactory,85,PM10
2019-09-02,Vatva,1.0,Satisfactory,72,PM10
2019-09-03,Vatva,1.0,Satisfactory,80,PM10
2019-09-04,Vatva,1.0,Satisfactory,94,PM10
2019-09-05,Vatva,1.0,Satisfactory,70,PM10
2019-09-06,Vatva,1.0,Satisfactory,51,PM10
2019-09-07,Vatva,1.0,Satisfactory,70,PM10
2019-09-08,Vatva,1.0,Good,47,PM10
2019-09-09,Vatva,1.0,Satisfactory,65,PM10
2019-09-10,Vatva,1.0,Satisfactory,67,PM10
2019-09-11,Vatva,1.0,Satisfactory,56,PM10
2019-09-12,Vatva,1.0,Satisfactory,75,PM10
2019-09-13,Vatva,1.0,Satisfactory,83,PM10
2019-09-14,Vatva,1.0,Satisfactory,93,PM10
2019-09-15,Vatva,1.0,Moderate,102,PM10
2019-09-16,Vatva,1.0,Moderate,103,PM10
2019-09-17,Vatva,1.0,Moderate,109,PM10
2019-09-18,Vatva,1.0,Moderate,133,PM2.5
2019-09-19,Vatva,1.0,Moderate,108,PM10
2019-09-20,Vatva,1.0,Satisfactory,61,PM10
2019-09-21,Vatva,1.0,Good,41,PM10
2019-09-22,Vatva,1.0,Satisfactory,62,PM10
2019-09-23,Vatva,1.0,Satisfactory,81,PM10
2019-09-24,Vatva,1.0,Satisfactory,66,PM10
2019-09-25,Vatva,1.0,Moderate,118,PM10
2019-09-26,Vatva,1.0,Moderate,153,NO2
2019-09-27,Vatva,1.0,Satisfactory,52,PM10
2019-09-28,Vatva,1.0,Satisfactory,56,PM10
2019-09-29,Vatva,1.0,Good,48,PM10
2019-09-30,Vatva,1.0,Good,48,PM10
2019-10-01,Vatva,1.0,Satisfactory,63,PM10
2019-10-02,Vatva,1.0,Satisfactory,97,PM10
2019-10-03,Vatva,1.0,Moderate,108,PM10
2019-10-04,Vatva,1.0,Moderate,120,PM10
2019-10-06,Vatva,1.0,Satisfactory,96,PM10
2019-10-07,Vatva,1.0,Satisfactory,100,PM10
2019-10-08,Vatva,1.0,Moderate,102,PM10
2019-10-09,Vatva,1.0,Moderate,109,PM10
2019-10-10,Vatva,1.0,Moderate,155,PM2.5
2019-10-11,Vatva,1.0,Moderate,133,PM10
2019-10-12,Vatva,1.0,Moderate,166,PM10
2019-10-13,Vatva,1.0,Moderate,170,PM10
2019-10-14,Vatva,1.0,Moderate,184,PM10
2019-10-15,Vatva,1.0,Poor,208,PM10
2019-10-16,Vatva,1.0,Moderate,190,PM10
2019-10-17,Vatva,1.0,Poor,205,PM10
2019-10-18,Vatva,1.0,Poor,205,PM10
2019-10-19,Vatva,1.0,Moderate,127,PM10
2019-10-20,Vatva,1.0,Moderate,126,PM10
2019-10-21,Vatva,1.0,Moderate,105,PM10
2019-10-22,Vatva,1.0,Moderate,117,PM10
2019-10-23,Vatva,1.0,Moderate,104,PM10
2019-10-24,Vatva,1.0,Moderate,107,PM10
2019-10-25,Vatva,1.0,Moderate,168,PM10
2019-10-26,Vatva,1.0,Moderate,163,PM10
2019-10-27,Vatva,1.0,Moderate,107,PM10
2019-10-28,Vatva,1.0,Satisfactory,77,PM10
2019-10-29,Vatva,1.0,Satisfactory,61,PM10
2019-10-30,Vatva,1.0,Good,46,CO
2019-10-31,Vatva,1.0,Satisfactory,67,PM10
2019-11-01,Vatva,1.0,Satisfactory,98,PM10
2019-11-02,Vatva,1.0,Moderate,114,PM10
2019-11-03,Vatva,1.0,Satisfactory,62,PM10
2019-11-04,Vatva,1.0,Moderate,140,PM10
2019-11-05,Vatva,1.0,Moderate,149,PM10
2019-11-06,Vatva,1.0,Poor,212,PM10
2019-11-07,Vatva,1.0,Moderate,148,PM2.5
2019-11-08,Vatva,1.0,Moderate,106,PM10
2019-11-09,Vatva,1.0,Moderate,136,PM10
2019-11-10,Vatva,1.0,Moderate,186,PM2.5
2019-11-11,Vatva,1.0,Moderate,162,PM2.5
2019-11-12,Vatva,1.0,Poor,205,PM10
2019-11-13,Vatva,1.0,Moderate,173,PM10
2019-11-14,Vatva,1.0,Moderate,160,PM10
2019-11-15,Vatva,1.0,Moderate,152,PM10
2019-11-16,Vatva,1.0,Moderate,194,PM2.5
2019-11-17,Vatva,1.0,Poor,209,PM2.5
2019-11-18,Vatva,1.0,Poor,214,PM2.5
2019-11-19,Vatva,1.0,Poor,228,PM2.5
2019-11-20,Vatva,1.0,Moderate,145,PM10
2019-11-21,Vatva,1.0,Moderate,160,PM2.5
2019-11-22,Vatva,1.0,Moderate,129,PM10
2019-11-23,Vatva,1.0,Moderate,178,PM2.5
2019-11-24,Vatva,1.0,Poor,203,PM2.5
2019-11-25,Vatva,1.0,Poor,211,PM2.5
2019-11-26,Vatva,1.0,Poor,213,PM10
2019-11-27,Vatva,1.0,Poor,227,PM2.5
2019-11-28,Vatva,1.0,Moderate,146,PM10
2019-11-29,Vatva,1.0,Moderate,147,PM10
2019-12-01,Vatva,1.0,Moderate,136,PM10
2019-12-02,Vatva,1.0,Moderate,134,PM10
2019-12-03,Vatva,1.0,Moderate,148,PM2.5
2019-12-04,Vatva,1.0,Moderate,129,PM10
2019-12-05,Vatva,1.0,Moderate,123,PM2.5
2019-12-06,Vatva,1.0,Moderate,145,PM10
2019-12-07,Vatva,1.0,Moderate,161,PM10
2019-12-08,Vatva,1.0,Moderate,182,PM2.5
2019-12-09,Vatva,1.0,Poor,201,PM2.5
2019-12-10,Vatva,1.0,Poor,256,PM2.5
2019-12-11,Vatva,1.0,Very Poor,302,PM2.5
2019-12-12,Vatva,1.0,Very Poor,337,PM10
2019-12-13,Vatva,1.0,Moderate,172,PM10
2019-12-14,Vatva,1.0,Moderate,118,PM10
2019-12-15,Vatva,1.0,Moderate,144,PM10
2019-12-16,Vatva,1.0,Moderate,112,PM10
2019-12-17,Vatva,1.0,Moderate,123,PM10
2019-12-18,Vatva,1.0,Moderate,118,PM10
2019-12-19,Vatva,1.0,Moderate,146,PM2.5
2019-12-20,Vatva,1.0,Poor,240,PM10
2019-12-21,Vatva,1.0,Poor,203,PM2.5
2019-12-22,Vatva,1.0,Moderate,173,PM10
2019-12-23,Vatva,1.0,Moderate,136,PM10
2019-12-24,Vatva,1.0,Moderate,145,PM10
2019-12-25,Vatva,1.0,Moderate,132,PM10
2019-12-26,Vatva,1.0,Moderate,148,PM2.5
2019-12-27,Vatva,1.0,Moderate,141,PM10
2019-12-28,Vatva,1.0,Satisfactory,92,PM10
2019-12-29,Vatva,1.0,Moderate,114,PM10
2019-12-30,Vatva,1.0,Moderate,156,PM2.5
2019-12-31,Vatva,1.0,Moderate,181,PM10
2020-01-01,Vatva,1.0,Poor,246,PM2.5
2020-01-02,Vatva,1.0,Poor,267,PM2.5
2020-01-03,Vatva,1.0,Poor,235,PM2.5
2020-01-04,Vatva,1.0,Poor,282,PM2.5
2020-01-05,Vatva,1.0,Moderate,160,PM10
2020-01-06,Vatva,1.0,Moderate,105,PM10
2020-01-07,Vatva,1.0,Moderate,178,PM10
2020-01-08,Vatva,1.0,Poor,239,PM2.5
2020-01-09,Vatva,1.0,Moderate,106,PM10
2020-01-10,Vatva,1.0,Moderate,132,PM10
2020-01-11,Vatva,1.0,Moderate,109,PM10
2020-01-12,Vatva,1.0,Moderate,160,PM10
2020-01-13,Vatva,1.0,Poor,246,PM2.5
2020-01-15,Vatva,1.0,Satisfactory,89,PM10
2020-01-17,Vatva,1.0,Moderate,147,PM2.5
2020-01-18,Vatva,1.0,Poor,217,PM2.5
2020-01-19,Vatva,1.0,Moderate,149,PM10
2020-01-20,Vatva,1.0,Moderate,110,PM10
2020-01-21,Vatva,1.0,Moderate,158,PM10
2020-01-22,Vatva,1.0,Moderate,178,PM2.5
2020-01-23,Vatva,1.0,Moderate,169,PM10
2020-01-24,Vatva,1.0,Moderate,118,PM10
2020-01-25,Vatva,1.0,Moderate,178,PM10
2020-01-26,Vatva,1.0,Very Poor,318,PM10
2020-01-27,Vatva,1.0,Poor,295,PM2.5
2020-01-28,Vatva,1.0,Moderate,155,PM10
2020-01-29,Vatva,1.0,Moderate,155,PM2.5
2020-01-30,Vatva,1.0,Poor,237,PM10
2020-01-31,Vatva,1.0,Moderate,191,PM10
2020-02-01,Vatva,1.0,Moderate,155,PM10
2020-02-02,Vatva,1.0,Moderate,128,PM10
2020-02-04,Vatva,1.0,Moderate,194,PM2.5
2020-02-05,Vatva,1.0,Moderate,154,PM10
2020-02-06,Vatva,1.0,Moderate,144,PM10
2020-02-07,Vatva,1.0,Moderate,128,PM10
2020-02-08,Vatva,1.0,Moderate,153,PM10
2020-02-09,Vatva,1.0,Moderate,139,PM2.5
2020-02-10,Vatva,1.0,Moderate,112,PM10
2020-02-11,Vatva,1.0,Moderate,164,PM2.5
2020-02-12,Vatva,1.0,Moderate,171,PM2.5
2020-02-13,Vatva,1.0,Poor,261,PM10
2020-02-14,Vatva,1.0,Moderate,179,PM2.5
2020-02-15,Vatva,1.0,Moderate,188,PM2.5
2020-02-16,Vatva,1.0,Moderate,184,PM10
2020-02-17,Vatva,1.0,Moderate,130,PM10
2020-02-18,Vatva,1.0,Poor,226,PM2.5
2020-02-19,Vatva,1.0,Poor,241,PM2.5
2020-02-20,Vatva,1.0,Moderate,198,PM2.5
2020-02-21,Vatva,1.0,Poor,240,PM2.5
2020-02-22,Vatva,1.0,Moderate,148,PM10
2020-02-23,Vatva,1.0,Moderate,185,PM10
2020-02-24,Vatva,1.0,Moderate,166,PM2.5
2020-02-25,Vatva,1.0,Poor,261,PM2.5
2020-02-26,Vatva,1.0,Poor,297,PM10
2020-02-27,Vatva,1.0,Poor,283,PM2.5
2020-02-28,Vatva,1.0,Poor,231,PM2.5
2020-02-29,Vatva,1.0,Poor,201,PM2.5
2020-03-03,Vatva,1.0,Moderate,193,PM2.5
2020-03-04,Vatva,1.0,Moderate,138,PM10
2020-03-05,Vatva,1.0,Moderate,126,PM10
2020-03-06,Vatva,1.0,Moderate,118,PM10
2020-03-07,Vatva,1.0,Moderate,176,PM2.5
2020-03-08,Vatva,1.0,Moderate,163,PM2.5
2020-03-09,Vatva,1.0,Satisfactory,86,PM10
2020-03-10,Vatva,1.0,Moderate,116,PM10
2020-03-11,Vatva,1.0,Satisfactory,90,PM10
2020-03-12,Vatva,1.0,Moderate,109,PM10
2020-03-13,Vatva,1.0,Moderate,125,PM10
2020-03-14,Vatva,1.0,Moderate,111,PM10
2020-03-15,Vatva,1.0,Moderate,115,PM10
2020-03-16,Vatva,1.0,Satisfactory,58,PM2.5
2020-03-18,Vatva,1.0,Moderate,180,PM10
2020-03-19,Vatva,1.0,Moderate,172,PM10
2020-03-20,Vatva,1.0,Moderate,110,PM10
2020-03-21,Vatva,1.0,Moderate,105,PM2.5
2020-03-22,Vatva,1.0,Moderate,110,PM10
2020-03-23,Vatva,1.0,Moderate,118,PM10
2020-03-24,Vatva,1.0,Satisfactory,82,PM10
2020-03-25,Vatva,1.0,Satisfactory,72,PM10
2020-03-26,Vatva,1.0,Satisfactory,83,PM10
2020-03-27,Vatva,1.0,Good,47,PM10
2020-03-28,Vatva,1.0,Satisfactory,64,PM10
2020-03-29,Vatva,1.0,Satisfactory,53,PM10
2020-03-31,Vatva,1.0,Satisfactory,68,PM10
2020-04-01,Vatva,1.0,Good,43,PM10
2020-04-02,Vatva,1.0,Good,50,PM10
2020-04-03,Vatva,1.0,Satisfactory,60,PM10
2020-04-04,Vatva,1.0,Satisfactory,69,PM10
2020-04-05,Vatva,1.0,Satisfactory,94,PM10
2020-04-06,Vatva,1.0,Satisfactory,75,PM10
2020-04-07,Vatva,1.0,Satisfactory,64,PM10
2020-04-08,Vatva,1.0,Satisfactory,68,PM10
2020-04-09,Vatva,1.0,Satisfactory,61,PM10
2020-04-10,Vatva,1.0,Satisfactory,56,PM10
2020-04-12,Vatva,1.0,Satisfactory,71,PM10
2020-04-13,Vatva,1.0,Good,48,PM10
2020-04-21,Vatva,1.0,Satisfactory,69,PM10
2020-04-22,Vatva,1.0,Satisfactory,77,PM10
2020-04-23,Vatva,1.0,Satisfactory,77,PM10
2020-04-24,Vatva,1.0,Satisfactory,76,PM10
2020-04-25,Vatva,1.0,Satisfactory,58,PM10
2020-04-26,Vatva,1.0,Satisfactory,78,PM10
2020-04-27,Vatva,1.0,Satisfactory,53,PM10
2020-04-28,Vatva,1.0,Satisfactory,72,PM10
2020-04-29,Vatva,1.0,Satisfactory,72,PM10
2020-04-30,Vatva,1.0,Satisfactory,83,PM10
2020-05-01,Vatva,1.0,Satisfactory,89,PM10
2020-05-02,Vatva,1.0,Satisfactory,60,PM10
2020-05-03,Vatva,1.0,Satisfactory,80,PM10
2020-05-04,Vatva,1.0,Satisfactory,75,PM10
2020-05-05,Vatva,1.0,Satisfactory,70,PM10
2020-05-06,Vatva,1.0,Good,49,PM10
2020-05-07,Vatva,1.0,Satisfactory,73,PM10
2020-05-08,Vatva,1.0,Satisfactory,70,PM10
2020-05-09,Vatva,1.0,Satisfactory,72,PM10
2020-05-10,Vatva,1.0,Satisfactory,53,PM10
2020-05-11,Vatva,1.0,Satisfactory,53,PM10
2020-05-12,Vatva,1.0,Satisfactory,54,PM10
2020-05-13,Vatva,1.0,Satisfactory,51,PM10
2020-05-14,Vatva,1.0,Satisfactory,53,PM10
2020-05-15,Vatva,1.0,Satisfactory,63,PM10
2020-05-16,Vatva,1.0,Satisfactory,71,PM10
2020-05-17,Vatva,1.0,Satisfactory,81,PM10
2020-05-18,Vatva,1.0,Satisfactory,63,PM10
2020-05-19,Vatva,1.0,Satisfactory,73,PM10
2020-05-20,Vatva,1.0,Satisfactory,88,PM10
2020-05-21,Vatva,1.0,Satisfactory,84,PM10
2020-05-22,Vatva,1.0,Moderate,106,PM10
2020-05-23,Vatva,1.0,Satisfactory,92,PM10
2020-05-24,Vatva,1.0,Satisfactory,86,PM10
2020-05-25,Vatva,1.0,Satisfactory,76,PM10
2020-05-26,Vatva,1.0,Satisfactory,88,PM10
2020-05-27,Vatva,1.0,Satisfactory,93,PM10
2020-05-28,Vatva,1.0,Satisfactory,82,PM10
2020-05-29,Vatva,1.0,Moderate,102,PM10
2020-05-30,Vatva,1.0,Satisfactory,89,PM10
2020-05-31,Vatva,1.0,Satisfactory,74,PM10
2020-06-01,Vatva,1.0,Satisfactory,69,PM10
2020-06-02,Vatva,1.0,Satisfactory,69,PM10
2020-06-03,Vatva,1.0,Satisfactory,80,PM10
2020-06-04,Vatva,1.0,Satisfactory,86,PM10
2020-06-05,Vatva,1.0,Satisfactory,78,PM10
2020-06-06,Vatva,1.0,Satisfactory,82,PM10
2020-06-07,Vatva,1.0,Satisfactory,73,PM10
2020-06-08,Vatva,1.0,Satisfactory,55,PM10
2020-06-09,Vatva,1.0,Satisfactory,62,PM10
2020-06-10,Vatva,1.0,Satisfactory,80,PM10
2020-06-11,Vatva,1.0,Satisfactory,68,PM10
2020-06-12,Vatva,1.0,Satisfactory,70,PM10
2020-06-13,Vatva,1.0,Satisfactory,70,PM10
2020-06-14,Vatva,1.0,Satisfactory,71,PM10
2020-06-15,Vatva,1.0,Good,45,PM10
2020-06-16,Vatva,1.0,Satisfactory,54,PM10
2020-06-17,Vatva,1.0,Satisfactory,93,PM10
2020-06-18,Vatva,1.0,Satisfactory,84,PM10
2020-06-19,Vatva,1.0,Satisfactory,66,PM10
2020-06-20,Vatva,1.0,Satisfactory,67,PM10
2020-06-21,Vatva,1.0,Satisfactory,55,PM10
2020-06-22,Vatva,1.0,Satisfactory,65,PM10
2020-06-23,Vatva,1.0,Satisfactory,61,PM10
2020-06-24,Vatva,1.0,Satisfactory,63,PM10
2020-06-25,Vatva,1.0,Satisfactory,57,PM10
2020-06-26,Vatva,1.0,Satisfactory,62,PM10
2020-06-28,Vatva,1.0,Satisfactory,82,PM10
2020-06-29,Vatva,1.0,Satisfactory,85,PM10
2020-06-30,Vatva,1.0,Satisfactory,68,PM10
2020-07-01,Vatva,1.0,Satisfactory,61,PM10
2020-07-02,Vatva,1.0,Satisfactory,55,PM10
2020-07-03,Vatva,1.0,Satisfactory,55,PM10
2020-07-04,Vatva,1.0,Satisfactory,67,PM10
2020-07-05,Vatva,1.0,Satisfactory,78,PM10
2020-07-06,Vatva,1.0,Good,46,PM10
2020-07-07,Vatva,1.0,Good,41,PM10
2020-07-08,Vatva,1.0,Satisfactory,58,PM10
2020-07-09,Vatva,1.0,Satisfactory,65,PM10
2020-07-10,Vatva,1.0,Good,44,PM10
2020-07-11,Vatva,1.0,Good,46,PM10
2020-07-13,Vatva,1.0,Satisfactory,52,PM10
2020-07-14,Vatva,1.0,Satisfactory,70,PM10
2020-07-15,Vatva,1.0,Satisfactory,83,PM10
2020-07-16,Vatva,1.0,Satisfactory,62,CO
2020-07-17,Vatva,1.0,Satisfactory,56,CO
2020-07-18,Vatva,1.0,Satisfactory,67,PM10
2020-07-19,Vatva,1.0,Satisfactory,67,PM10
2020-07-20,Vatva,1.0,Satisfactory,60,PM10
2020-07-21,Vatva,1.0,Satisfactory,66,PM10
2020-07-22,Vatva,1.0,Satisfactory,97,PM2.5
2020-07-23,Vatva,1.0,Satisfactory,85,PM10
2020-07-24,Vatva,1.0,Moderate,123,PM10
2020-07-25,Vatva,1.0,Satisfactory,92,PM2.5
2020-07-26,Vatva,1.0,Satisfactory,71,PM2.5
2020-07-27,Vatva,1.0,Satisfactory,57,PM2.5
2020-07-28,Vatva,1.0,Satisfactory,78,PM2.5
2020-07-29,Vatva,1.0,Satisfactory,99,PM10
2020-07-30,Vatva,1.0,Satisfactory,98,PM10
2020-07-31,Vatva,1.0,Satisfactory,88,PM2.5
2020-08-01,Vatva,1.0,Satisfactory,73,PM2.5
2020-08-02,Vatva,1.0,Satisfactory,67,PM10
2020-08-03,Vatva,1.0,Good,47,PM10
2020-08-04,Vatva,1.0,Satisfactory,52,PM2.5
2020-08-05,Vatva,1.0,Satisfactory,77,PM2.5
2020-08-06,Vatva,1.0,Satisfactory,87,PM10
2020-08-07,Vatva,1.0,Satisfactory,87,PM2.5
2020-08-08,Vatva,1.0,Moderate,124,PM2.5
2020-08-09,Vatva,1.0,Satisfactory,79,PM2.5
2020-08-10,Vatva,1.0,Moderate,118,PM2.5
2020-08-11,Vatva,1.0,Satisfactory,90,PM10
2020-08-12,Vatva,1.0,Satisfactory,57,PM10
2020-08-13,Vatva,1.0,Satisfactory,52,PM2.5
2020-08-14,Vatva,1.0,Good,50,PM2.5
2020-08-15,Vatva,1.0,Satisfactory,65,PM2.5
2020-08-16,Vatva,1.0,Satisfactory,63,PM2.5
2020-08-17,Vatva,1.0,Satisfactory,74,PM10
2020-08-18,Vatva,1.0,Satisfactory,73,PM2.5
2020-08-19,Vatva,1.0,Satisfactory,70,PM10
2020-08-21,Vatva,1.0,Satisfactory,80,PM10
2020-08-22,Vatva,1.0,Satisfactory,82,PM2.5
2020-08-23,Vatva,1.0,Satisfactory,65,PM10
2020-08-24,Vatva,1.0,Satisfactory,66,PM10
2020-08-25,Vatva,1.0,Satisfactory,72,PM10
2020-08-26,Vatva,1.0,Satisfactory,95,PM10
2020-08-27,Vatva,1.0,Moderate,114,PM2.5
2020-08-28,Vatva,1.0,Satisfactory,79,PM2.5
2020-08-29,Vatva,1.0,Satisfactory,86,PM10
2020-08-30,Vatva,1.0,Satisfactory,82,PM2.5
2020-08-31,Vatva,1.0,Satisfactory,61,PM2.5
2020-09-01,Vatva,1.0,Satisfactory,93,PM2.5
2020-09-02,Vatva,1.0,Moderate,109,PM10
2020-09-03,Vatva,1.0,Moderate,157,PM2.5
2020-09-04,Vatva,1.0,Moderate,145,PM2.5
2020-09-05,Vatva,1.0,Moderate,122,PM10
2020-09-06,Vatva,1.0,Moderate,130,PM10
2020-09-07,Vatva,1.0,Satisfactory,93,PM10
2020-09-08,Vatva,1.0,Moderate,110,PM10
2020-09-09,Vatva,1.0,Moderate,104,PM10
2020-09-10,Vatva,1.0,Moderate,150,PM10
2020-09-11,Vatva,1.0,Moderate,107,PM10
2020-09-12,Vatva,1.0,Satisfactory,68,NO2
2020-09-13,Vatva,1.0,Satisfactory,51,PM10
2020-09-14,Vatva,1.0,Satisfactory,59,PM10
2020-09-15,Vatva,1.0,Satisfactory,88,PM10
2020-09-16,Vatva,1.0,Moderate,102,PM10
2020-09-17,Vatva,1.0,Moderate,116,PM10
2020-09-18,Vatva,1.0,Moderate,120,PM10
2020-09-19,Vatva,1.0,Moderate,121,PM10
2020-09-20,Vatva,1.0,Moderate,182,PM2.5
2020-09-21,Vatva,1.0,Moderate,141,PM2.5
2020-09-22,Vatva,1.0,Moderate,138,PM2.5
2020-09-23,Vatva,1.0,Moderate,124,PM10
2020-09-24,Vatva,1.0,Moderate,114,PM10
2020-09-25,Vatva,1.0,Moderate,124,PM10
2020-09-26,Vatva,1.0,Moderate,113,PM10
2020-09-27,Vatva,1.0,Moderate,124,PM10
2020-09-28,Vatva,1.0,Moderate,109,PM10
2020-09-29,Vatva,1.0,Moderate,130,PM10
2020-09-30,Vatva,1.0,Moderate,144,PM10
2020-10-01,Vatva,1.0,Moderate,138,PM10
2020-10-02,Vatva,1.0,Moderate,114,PM10
2020-10-03,Vatva,1.0,Moderate,114,PM10
2020-10-04,Vatva,1.0,Moderate,126,PM10
2020-10-05,Vatva,1.0,Moderate,134,PM10
2020-10-06,Vatva,1.0,Moderate,125,PM10
2020-10-07,Vatva,1.0,Moderate,144,PM10
2020-10-08,Vatva,1.0,Moderate,185,PM10
2020-10-09,Vatva,1.0,Moderate,147,PM10
2020-10-10,Vatva,1.0,Moderate,185,PM10
2020-10-11,Vatva,1.0,Moderate,190,PM10
2020-10-12,Vatva,1.0,Moderate,159,PM10
2020-10-13,Vatva,1.0,Moderate,189,PM2.5
2020-10-14,Vatva,1.0,Moderate,177,PM10
2020-10-15,Vatva,1.0,Moderate,145,PM10
2020-10-16,Vatva,1.0,Satisfactory,96,PM10
2020-10-17,Vatva,1.0,Satisfactory,83,PM10
2020-10-18,Vatva,1.0,Satisfactory,89,PM10
2020-10-19,Vatva,1.0,Satisfactory,91,PM10
2020-10-20,Vatva,1.0,Moderate,113,PM10
2020-10-21,Vatva,1.0,Moderate,130,PM10
2020-10-22,Vatva,1.0,Satisfactory,97,PM10
2020-10-23,Vatva,1.0,Moderate,118,PM10
2020-10-24,Vatva,1.0,Poor,237,PM10
2020-10-25,Vatva,1.0,Moderate,120,PM10
2020-10-26,Vatva,1.0,Moderate,111,PM10
2020-10-27,Vatva,1.0,Moderate,142,PM10
2020-10-28,Vatva,1.0,Moderate,135,PM10
2020-10-29,Vatva,1.0,Moderate,157,PM10
2020-10-30,Vatva,1.0,Moderate,157,PM2.5
2020-10-31,Vatva,1.0,Moderate,137,PM10